[[{"header":{"parameterUnit":"m.s-1","parameterCategory":1,"la1":30.2991,"la2":30.254,"lo1":-89.0895,"lo2":-89.0444,"dy":0.0017,"dx":0.0017,"nx":28,"ny":28,"refTime":"2025-07-04T09:00:00:Z","depth":0,"parameterNumber":2,"parameterNumberName":"U-component_of_WINDS"},"data":[0,0,0,0,0,0,0,0,0,0,0,0,0,0,0,0,0,0,0,0,0,0,0,0,0,0,0,0,0,0,0,0,0,0,0,0,0,0,0,0,0,0,0,0,0,0,0,0,0,0,0,0,0,0,0,0,0,0,-0.2842,-0.2842,0,-0.284,-0.284,-0.284,-0.2827,-0.2827,-0.2826,-0.2826,-0.2825,-0.2825,-0.2825,0,0,0,0,0,0,0,0,0,0,0,0,0,-0.284,-0.284,-0.2842,-0.2842,-0.2842,-0.284,-0.284,-0.284,-0.2827,-0.2827,-0.2826,-0.2826,-0.2825,-0.2825,-0.2826,0,0,0,0,0,0,0,0,0,0,0,0,0,-0.2839,-0.284,-0.2842,-0.2836,-0.2835,-0.284,-0.284,-0.284,-0.2827,-0.2827,-0.2826,-0.2826,-0.2825,-0.2825,-0.2826,-0.2837,0,0,-0.2827,-0.2827,0,0,0,0,0,0,0,0,-0.284,-0.284,-0.2837,-0.2836,-0.2836,-0.2833,-0.2838,-0.2839,-0.2827,-0.283,-0.2826,-0.2826,-0.2828,-0.2828,-0.2829,-0.2837,-0.2837,-0.2827,-0.2827,-0.2827,-0.2827,0,0,0,0,0,0,0,-0.284,-0.284,-0.2841,-0.2837,-0.2836,-0.2834,-0.2833,-0.2838,-0.2832,-0.283,-0.2829,-0.2829,-0.2828,-0.2828,-0.2829,-0.2837,-0.2827,-0.2827,-0.2827,-0.2827,-0.2856,-0.2857,0,0,0,0,0,0,-0.284,-0.284,-0.2841,-0.2841,-0.2836,-0.2834,-0.2834,-0.2834,-0.2832,-0.2831,-0.2829,-0.2828,-0.2828,-0.2828,-0.2829,-0.2843,-0.2827,-0.2827,-0.2828,-0.2856,-0.2856,-0.2857,0,0,0,0,0,0,-0.284,-0.284,-0.2842,-0.284,-0.284,-0.2835,-0.2836,-0.2835,-0.2835,-0.2831,-0.283,-0.2831,-0.2828,-0.2828,-0.2835,-0.2843,-0.2828,-0.2828,-0.2855,-0.2856,-0.2857,-0.2872,0,0,0,0,0,0,-0.284,-0.2841,-0.2844,-0.284,-0.284,-0.2847,-0.2836,-0.2835,-0.2836,-0.2834,-0.2832,-0.2832,-0.2827,-0.2835,-0.2836,-0.2843,-0.2828,-0.2854,-0.2856,-0.2856,-0.287,-0.2873,-0.2875,0,0,0,0,0,-0.284,-0.2848,-0.2844,-0.2845,-0.2844,-0.2848,-0.2848,-0.2842,-0.2836,-0.284,-0.2838,-0.2832,-0.2842,-0.2836,-0.2837,-0.2844,-0.2854,-0.2855,-0.2856,-0.2869,-0.2872,-0.2875,0,0,0,0,0,0,-0.2853,-0.2848,-0.2843,-0.285,-0.285,-0.2846,-0.2851,-0.2845,-0.2847,-0.2846,-0.2839,-0.2839,-0.2848,-0.2846,-0.284,-0.2856,-0.2847,-0.2848,-0.2857,-0.2859,-0.2861,-0.2862,-0.2829,0,0,0,0,0,-0.2857,-0.2859,-0.2854,-0.2861,-0.2861,-0.2856,-0.2857,-0.2853,-0.2852,-0.2852,-0.285,-0.2851,-0.2854,-0.2856,-0.2859,-0.287,-0.287,-0.2876,-0.2878,-0.288,-0.2882,-0.2889,-0.2892,-0.2861,-0.2861,-0.2861,0,0,-0.2864,-0.2862,-0.2864,-0.2864,-0.2863,-0.2867,-0.2856,-0.286,-0.2863,-0.2853,-0.286,-0.2859,-0.2859,-0.2868,-0.2873,-0.2868,-0.289,-0.2882,-0.2883,-0.2884,-0.2891,-0.2894,-0.2896,-0.2862,-0.2862,-0.2862,0,0,-0.288,-0.2878,-0.2884,-0.2884,-0.2882,-0.2879,-0.2881,-0.2878,-0.2877,-0.2883,-0.2876,-0.2881,-0.2886,-0.2887,-0.2888,-0.2906,-0.2901,-0.2907,-0.2919,-0.2927,-0.2929,-0.2932,-0.294,-0.2942,-0.2909,-0.2909,-0.2909,0,-0.289,-0.2895,-0.2888,-0.2893,-0.2894,-0.2885,-0.2892,-0.2892,-0.2892,-0.2894,-0.2888,-0.2896,-0.2895,-0.2906,-0.291,-0.2911,-0.2914,-0.2908,-0.2929,-0.2931,-0.2933,-0.2941,-0.2944,-0.291,-0.291,-0.291,-0.291,0,-0.2908,-0.2911,-0.2917,-0.2917,-0.2918,-0.2924,-0.292,-0.2922,-0.2918,-0.2916,-0.2924,-0.2923,-0.2926,-0.2928,-0.2924,-0.2939,-0.2937,-0.293,-0.2921,-0.2937,-0.2945,-0.2947,-0.2911,-0.2911,-0.291,-0.291,0,0,-0.2932,-0.2929,-0.2931,-0.2932,-0.293,-0.2933,-0.294,-0.2943,-0.2946,-0.2946,-0.2953,-0.2958,-0.2953,-0.2954,-0.2951,-0.2957,-0.2974,-0.295,-0.295,-0.2956,-0.2992,-0.2998,-0.3001,-0.297,-0.2971,-0.2971,-0.2993,0,-0.2948,-0.2958,-0.2953,-0.2964,-0.2968,-0.296,-0.2966,-0.2967,-0.2965,-0.2969,-0.2968,-0.2972,-0.2964,-0.2965,-0.2971,-0.297,-0.2981,-0.2969,-0.2977,-0.2978,-0.2979,-0.3004,-0.301,-0.303,-0.2995,-0.2996,-0.2996,0,-0.2968,-0.297,-0.2982,-0.2981,-0.2983,-0.2988,-0.2991,-0.2994,-0.2996,-0.2994,-0.2997,-0.2992,-0.3,-0.299,-0.3002,-0.2993,-0.2997,-0.2997,-0.2998,-0.2999,-0.2989,-0.3008,-0.3036,-0.304,-0.3,-0.3,-0.2999,0,-0.2987,-0.2992,-0.3,-0.3,-0.2999,-0.3003,-0.3003,-0.3004,-0.3007,-0.301,-0.3012,-0.3016,-0.3018,-0.3022,-0.3019,-0.3012,-0.3032,-0.3022,-0.3033,-0.3033,-0.3038,-0.3038,-0.3068,-0.3038,-0.3038,-0.3038,-0.3038,0,-0.3006,-0.3014,-0.3008,-0.3013,-0.3022,-0.3016,-0.3026,-0.3025,-0.3026,-0.3032,-0.3025,-0.3031,-0.3027,-0.3032,-0.303,-0.3041,-0.3042,-0.3042,-0.3042,-0.3044,-0.3044,-0.3047,-0.3046,-0.3039,-0.3038,-0.3038,-0.3038,0,-0.3028,-0.3024,-0.3032,-0.3031,-0.3031,-0.3038,-0.3037,-0.3043,-0.3041,-0.3049,-0.305,-0.3048,-0.3055,-0.3052,-0.3059,-0.3058,-0.3073,-0.307,-0.3072,-0.3072,-0.3084,-0.3083,-0.3118,-0.3123,-0.3088,-0.3088,-0.3089,0,-0.3041,-0.3047,-0.3046,-0.3049,-0.305,-0.3055,-0.3058,-0.3053,-0.3057,-0.3059,-0.3065,-0.3071,-0.3076,-0.3087,-0.3087,-0.3093,-0.3091,-0.3103,-0.3092,-0.3094,-0.3093,-0.3094,-0.3095,-0.3106,-0.3106,-0.3106,-0.3107,0,-0.3065,-0.3063,-0.3067,-0.3071,-0.3075,-0.3078,-0.308,-0.3083,-0.3079,-0.3083,-0.309,-0.3094,-0.3102,-0.3109,-0.3114,-0.3116,-0.3111,-0.311,-0.3113,-0.3116,-0.3117,-0.3118,-0.308,-0.3109,-0.3109,-0.3109,-0.3109,-0.3109,-0.3084,-0.3089,-0.309,-0.3096,-0.3097,-0.31,-0.3105,-0.3105,-0.311,-0.3116,-0.3113,-0.3121,-0.3124,-0.3131,-0.3134,-0.3141,-0.3137,-0.3141,-0.3142,-0.3143,-0.3146,-0.3115,-0.3142,-0.3142,-0.3142,-0.3142,-0.3142,0,-0.3109,-0.311,-0.3114,-0.3118,-0.3123,-0.3117,-0.312,-0.3125,-0.3132,-0.3135,-0.314,-0.3149,-0.3156,-0.3157,-0.3164,-0.317,-0.3168,-0.3172,-0.3172,-0.3173,-0.3148,-0.3146,-0.3173,-0.3173,-0.3173,-0.3173,-0.3173,-0.3173,-0.3123,-0.3133,-0.3131,-0.3142,-0.3143,-0.3151,-0.3153,-0.3156,-0.3159,-0.3169,-0.3174,-0.3175,-0.3177,-0.3185,-0.3192,-0.3192,-0.3196,-0.3201,-0.32,-0.3177,-0.3174,-0.3171,-0.3169,-0.3201,-0.3201,-0.3224,-0.3225,-0.3225]},{"header":{"parameterUnit":"m.s-1","parameterCategory":1,"la1":30.2991,"la2":30.254,"lo1":-89.0895,"lo2":-89.0444,"dy":0.0017,"dx":0.0017,"nx":28,"ny":28,"refTime":"2025-07-04T09:00:00:Z","depth":0,"parameterNumber":3,"parameterNumberName":"V-component_of_WINDS"},"data":[0,0,0,0,0,0,0,0,0,0,0,0,0,0,0,0,0,0,0,0,0,0,0,0,0,0,0,0,0,0,0,0,0,0,0,0,0,0,0,0,0,0,0,0,0,0,0,0,0,0,0,0,0,0,0,0,0,0,2.6428,2.6429,0,2.6452,2.6453,2.6453,2.6503,2.6504,2.6505,2.6506,2.6528,2.6528,2.6528,0,0,0,0,0,0,0,0,0,0,0,0,0,2.6424,2.6424,2.6428,2.6429,2.6429,2.6452,2.6453,2.6453,2.6503,2.6504,2.6505,2.6507,2.6529,2.6528,2.6528,0,0,0,0,0,0,0,0,0,0,0,0,0,2.6434,2.6423,2.6428,2.6457,2.646,2.6452,2.6453,2.6453,2.6503,2.6504,2.6506,2.6507,2.6529,2.6528,2.6528,2.6494,0,0,2.6526,2.6526,0,0,0,0,0,0,0,0,2.6434,2.6435,2.6452,2.6455,2.6458,2.6476,2.6459,2.6467,2.6502,2.6486,2.6506,2.6508,2.651,2.6511,2.6512,2.6495,2.6496,2.6526,2.6526,2.6526,2.6525,0,0,0,0,0,0,0,2.6433,2.6434,2.6438,2.6452,2.6456,2.6468,2.6471,2.6461,2.6489,2.6488,2.6491,2.6494,2.6512,2.6512,2.6513,2.6496,2.6526,2.6526,2.6525,2.6525,2.6452,2.6451,0,0,0,0,0,0,2.6428,2.6433,2.6437,2.6439,2.6449,2.6467,2.647,2.6469,2.6489,2.6494,2.6492,2.6496,2.6513,2.6513,2.6514,2.6474,2.6526,2.6525,2.6525,2.6454,2.6452,2.645,0,0,0,0,0,0,2.6428,2.6428,2.6436,2.6437,2.6439,2.6465,2.6463,2.6469,2.6469,2.6493,2.6498,2.6488,2.6514,2.6515,2.6499,2.6476,2.6525,2.6524,2.6456,2.6453,2.6451,2.6396,0,0,0,0,0,0,2.6428,2.6428,2.6416,2.6436,2.6438,2.6421,2.6462,2.6468,2.6469,2.6473,2.649,2.6494,2.6515,2.6499,2.6498,2.6476,2.6524,2.6458,2.6455,2.6452,2.64,2.6392,2.6385,0,0,0,0,0,2.6427,2.6399,2.6415,2.6415,2.6424,2.6419,2.642,2.6445,2.6467,2.6454,2.6469,2.6494,2.6479,2.6497,2.6496,2.6474,2.6459,2.6455,2.6452,2.6403,2.6393,2.6385,0,0,0,0,0,0,2.6374,2.6402,2.642,2.6397,2.6406,2.6428,2.6412,2.6435,2.6436,2.644,2.6471,2.6474,2.6454,2.6463,2.6482,2.6442,2.6473,2.6469,2.6436,2.6427,2.642,2.6417,2.6524,0,0,0,0,0,2.636,2.6355,2.6379,2.6357,2.636,2.6386,2.6385,2.6403,2.6413,2.6416,2.643,2.6438,2.6435,2.6432,2.6431,2.6402,2.6406,2.6387,2.6379,2.6373,2.6368,2.6352,2.6343,2.6438,2.6438,2.6438,0,0,2.633,2.6345,2.6339,2.6347,2.6355,2.6348,2.6388,2.6379,2.6373,2.6415,2.64,2.641,2.6421,2.6398,2.6389,2.6405,2.6343,2.6368,2.6363,2.6362,2.6347,2.6338,2.633,2.6435,2.6436,2.6436,0,0,2.6271,2.6283,2.6265,2.6273,2.6286,2.6303,2.6299,2.6318,2.6326,2.6313,2.6343,2.6337,2.6332,2.6337,2.634,2.6284,2.6306,2.6283,2.6243,2.6227,2.622,2.6213,2.6191,2.6183,2.6279,2.6279,2.6279,0,2.6232,2.6223,2.6252,2.6241,2.6243,2.6281,2.6262,2.6269,2.628,2.628,2.6299,2.6292,2.6302,2.628,2.6267,2.6268,2.6263,2.628,2.6219,2.6212,2.6207,2.6186,2.6178,2.6276,2.6276,2.6276,2.6277,0,2.6173,2.6166,2.615,2.616,2.6161,2.6146,2.6172,2.6169,2.6188,2.6203,2.6188,2.6202,2.6203,2.62,2.6219,2.6181,2.619,2.6213,2.6245,2.6194,2.6175,2.6167,2.6271,2.6272,2.6273,2.6274,0,0,2.6078,2.6106,2.61,2.6104,2.6122,2.6117,2.6104,2.6106,2.6102,2.6109,2.6097,2.6092,2.6114,2.6117,2.6136,2.6123,2.6075,2.6148,2.6148,2.6131,2.6031,2.6011,2.6002,2.6091,2.609,2.6089,2.603,0,2.6021,2.6,2.6027,2.5999,2.5992,2.603,2.6018,2.6027,2.6041,2.6037,2.6053,2.6048,2.6078,2.608,2.6068,2.6083,2.6055,2.6088,2.6078,2.6078,2.6071,2.5992,2.5971,2.5914,2.6023,2.6021,2.6021,0,2.5951,2.5955,2.5927,2.5946,2.5944,2.5933,2.5937,2.5933,2.5944,2.5956,2.5959,2.5983,2.597,2.6003,2.5985,2.6007,2.6005,2.6012,2.6011,2.6008,2.6043,2.5984,2.5897,2.5887,2.6009,2.601,2.6011,0,2.5881,2.588,2.5863,2.5866,2.5889,2.588,2.5889,2.5901,2.5901,2.5905,2.5904,2.5906,2.5906,2.5907,2.5931,2.5953,2.5909,2.5945,2.5916,2.5915,2.5902,2.5902,2.581,2.5906,2.5906,2.5907,2.5907,0,2.5812,2.5793,2.5832,2.582,2.58,2.5831,2.581,2.5822,2.5834,2.5825,2.5858,2.5849,2.5883,2.5877,2.5896,2.5877,2.5877,2.5885,2.5889,2.588,2.5878,2.5876,2.588,2.5904,2.5905,2.5905,2.5906,0,2.5729,2.5755,2.5738,2.5761,2.5767,2.575,2.577,2.576,2.5777,2.5766,2.5765,2.5792,2.5787,2.5811,2.5811,2.5824,2.5794,2.5807,2.579,2.5792,2.5761,2.5763,2.5662,2.5649,2.5757,2.5756,2.5755,0,2.5682,2.5668,2.569,2.5687,2.5694,2.5689,2.5689,2.572,2.5719,2.573,2.5719,2.5717,2.5717,2.5707,2.5725,2.5725,2.5736,2.5701,2.5736,2.5727,2.5732,2.5731,2.5729,2.5693,2.5691,2.569,2.5689,0,2.5594,2.5608,2.5607,2.561,2.5609,2.5613,2.5619,2.5615,2.5648,2.5645,2.564,2.564,2.564,2.5637,2.5641,2.5649,2.5673,2.5679,2.5672,2.566,2.5649,2.5652,2.5766,2.568,2.5681,2.5682,2.5682,2.5683,2.5526,2.5515,2.5528,2.5526,2.5534,2.5539,2.5531,2.5548,2.5545,2.5547,2.5566,2.5558,2.5569,2.5577,2.5583,2.5576,2.5593,2.5583,2.558,2.5576,2.5569,2.5654,2.5577,2.5578,2.5578,2.5578,2.5578,0,2.5437,2.5449,2.5446,2.5454,2.5452,2.5478,2.5486,2.5482,2.5474,2.5484,2.5483,2.5478,2.5475,2.5494,2.5494,2.5485,2.5496,2.5483,2.5482,2.5483,2.5556,2.5561,2.5474,2.5474,2.5474,2.5474,2.5474,2.5474,2.5391,2.5373,2.5388,2.5374,2.5385,2.5378,2.538,2.5384,2.5392,2.5384,2.5383,2.5396,2.5408,2.541,2.5408,2.5414,2.541,2.5393,2.5402,2.5469,2.5479,2.5488,2.5493,2.5393,2.5393,2.533,2.5329,2.5329]}]]